Scottsdale, AZ

4:30 PM MST on September 25, 2017 (GMT -0700)
Scottsdale

Weather History for KSDL - October, 2013

Change the Weather History Date:

Thursday, October 31, 2013

  Actual Average Record
Temperature  
Mean Temperature 61 °F -  
Max Temperature 72 °F 75 °F 91 °F (2008)
Min Temperature 50 °F 54 °F 48 °F (2004)
Degree Days  
Heating Degree Days 4    
Growing Degree Days 11 (Base 50)    
Moisture  
Dew Point 32 °F    
Average Humidity 35    
Maximum Humidity 54    
Minimum Humidity 20    
Precipitation  
Precipitation 0.00 in - - ()
Sea Level Pressure  
Sea Level Pressure 30.03 in    
Wind  
Wind Speed 1 mph (WSW)    
Max Wind Speed 6 mph    
Max Gust Speed -    
Visibility 10 miles    
Events      
Averages and records for this station are not official NWS values.
T = Trace of Precipitation, MM = Missing Value Source: NWS Daily Summary

Daily Weather History Graph

Daily Weather History Graph

Search for Another Location

Airport or City:

Trip Planner

Search our weather history database for the weather conditions in past years. The results will help you decide how hot, cold, wet, or windy it might be!

Date:

Astronomy

Oct. 31, 2013 Rise Set
Actual Time 6:45 AM MST 5:36 PM MST
Civil Twilight 6:20 AM MST 6:01 PM MST
Nautical Twilight 5:50 AM MST 6:31 PM MST
Astronomical Twilight 5:21 AM MST 7:00 PM MST
Moon 3:47 AM MST (10/31) 3:49 PM MST (10/31)
Length of Visible Light 11h 41m
Length of Day
10h 50m
Waning Crescent, 9% of the Moon is Illuminated
Oct 31
Waning Crescent
Nov 3
New
Nov 9
First Quarter
Nov 17
Full
Nov 25
Last Quarter

Hourly Weather History & Observations

Time (MST) Temp. Dew Point Humidity Pressure Visibility Wind Dir Wind Speed Gust Speed Precip Events Conditions
12:53 AM 54.0 °F 35.1 °F 49% 30.01 in 10.0 mi Calm Calm - N/A   Clear
1:53 AM 55.0 °F 34.0 °F 45% 30.02 in 10.0 mi Calm Calm - N/A   Clear
2:53 AM 53.1 °F 33.1 °F 47% 30.01 in 10.0 mi Calm Calm - N/A   Clear
3:53 AM 52.0 °F 36.0 °F 54% 30.01 in 10.0 mi Calm Calm - N/A   Clear
4:53 AM 51.1 °F 34.0 °F 52% 30.04 in 10.0 mi Calm Calm - N/A   Clear
5:53 AM 50.0 °F 32.0 °F 50% 30.05 in 10.0 mi Calm Calm - N/A   Clear
6:53 AM 50.0 °F 33.1 °F 52% 30.07 in 5.0 mi Calm Calm - N/A   Haze
7:53 AM 53.1 °F 33.1 °F 47% 30.09 in 10.0 mi NW 3.5 mph - N/A   Clear
8:53 AM 57.0 °F 35.1 °F 44% 30.10 in 10.0 mi Calm Calm - N/A   Clear
9:53 AM 63.0 °F 33.1 °F 33% 30.10 in 10.0 mi WSW 4.6 mph - N/A   Clear
10:53 AM 66.0 °F 30.9 °F 27% 30.08 in 10.0 mi SW 4.6 mph - N/A   Clear
11:53 AM 68.0 °F 30.0 °F 24% 30.07 in 10.0 mi NNW 3.5 mph - N/A   Clear
12:53 PM 70.0 °F 30.0 °F 23% 30.04 in 10.0 mi WSW 5.8 mph - N/A   Clear
1:53 PM 72.0 °F 30.9 °F 22% 30.01 in 10.0 mi South 4.6 mph - N/A   Clear
2:53 PM 72.0 °F 28.9 °F 20% 29.99 in 10.0 mi SSW 5.8 mph - N/A   Clear
3:53 PM 72.0 °F 28.0 °F 20% 29.98 in 10.0 mi Variable 3.5 mph - N/A   Clear
4:53 PM 72.0 °F 28.0 °F 20% 29.97 in 10.0 mi Calm Calm - N/A   Clear
5:53 PM 70.0 °F 28.9 °F 22% 29.98 in 10.0 mi Calm Calm - N/A   Clear
6:53 PM 66.9 °F 30.9 °F 26% 29.99 in 10.0 mi Calm Calm - N/A   Clear
7:53 PM 64.0 °F 30.9 °F 29% 30.00 in 10.0 mi Calm Calm - N/A   Clear
8:53 PM 63.0 °F 32.0 °F 31% 30.00 in 10.0 mi Calm Calm - N/A   Clear
9:53 PM 62.1 °F 30.9 °F 31% 30.01 in 10.0 mi Calm Calm - N/A   Clear
10:53 PM 60.1 °F 32.0 °F 35% 30.03 in 10.0 mi Calm Calm - N/A   Clear
11:53 PM 60.1 °F 32.0 °F 35% 30.03 in 3.0 mi Calm Calm - N/A   Haze